Regional Weather Roundup
Issued by NWS

Home | Current Version | Previous Version | Graphics & Text | Print | Product List | Glossary On
Versions: 1 2 3 4 5 6 7 8 9 10 11 12 13 14 15 16 17 18 19 20 21 22 23 24 25 26 27 28 29 30 31 32 33 34 35 36 37 38 39 40 41 42 43 44 45 46 47 48 49 50
000
ASUS43 KLMK 231410
RWRKY
KENTUCKY REGIONAL WEATHER ROUNDUP
NATIONAL WEATHER SERVICE LOUISVILLE KY
1000 AM EDT TUE AUG 23 2016

NOTE "FAIR" INDICATES FEW OR NO CLOUDS BELOW 12,000 FEET
WITH NO SIGNIFICANT WEATHER AND/OR OBSTRUCTIONS TO VISIBILITY.

KYZ001>023-026-027-061>063-070>075-231500-
WESTERN AND SOUTH CENTRAL KENTUCKY

CITY           SKY/WX    TMP DP  RH WIND       PRES   REMARKS
PADUCAH        CLOUDY    71  65  81 E3        30.24R
HENDERSON      SUNNY     72  63  73 S6        30.25S
OWENSBORO      SUNNY     72  65  78 S3        30.28R
HOPKINSVILLE   DRIZZLE   72  64  78 E1        30.26R
BOWLING GREEN  SUNNY     71  64  78 NE3       30.28R
GLASGOW        SUNNY     70  65  84 CALM      30.28S
$$

KYZ024-025-028>034-038-045-046-053-231500-
NORTH CENTRAL KENTUCKY

CITY           SKY/WX    TMP DP  RH WIND       PRES   REMARKS
LOUISVILLE/SDF MOSUNNY   72  59  63 SE5       30.28R
LOUISVILLE/LOU SUNNY     73  60  63 SE5       30.29R
FORT KNOX      SUNNY     70  61  73 E5        30.27R
$$

KYZ035>037-039>044-047>052-055>060-089>105-231500-
NORTHEAST KENTUCKY

CITY           SKY/WX    TMP DP  RH WIND       PRES   REMARKS
LEXINGTON      SUNNY     74  59  59 SE6       30.31R
COVINGTON      MOSUNNY   73  61  65 SE5       30.30S
FRANKFORT      SUNNY     71  60  68 SE5       30.29R
$$

KYZ054-064>069-076>088-106>120-231500-
SOUTHEAST KENTUCKY

CITY           SKY/WX    TMP DP  RH WIND       PRES   REMARKS
JACKSON        SUNNY     68  60  75 CALM      30.32R
LONDON         SUNNY     68  60  75 CALM      30.31R
SOMERSET       SUNNY     66  63  88 CALM      30.31S
MIDDLESBORO    CLOUDY    60  60  97 CALM      30.33S
MONTICELLO     SUNNY    N/A N/A N/A W7        30.31S
$$





USA.gov is the U.S. government's official web portal to all federal, state and local government web resources and services.